Regional Weather Roundup
Issued by NWS

Home | Current Version | Previous Version | Text Only | Print | Product List | Glossary On
Versions: 1 2 3 4 5 6 7 8 9 10 11 12 13 14 15 16 17 18 19 20 21 22 23 24 25 26 27 28 29 30 31 32 33 34 35 36 37 38 39 40 41 42 43 44 45 46 47 48 49 50
000
ASUS43 KFSD 220610
RWRSD

WEATHER ROUNDUP FOR SOUTH DAKOTA
NATIONAL WEATHER SERVICE SIOUX FALLS SD
1200 AM CST MON DEC 22 2014

NOTE: "FAIR" INDICATES FEW OR NO CLOUDS BELOW 12,000 FEET WITH NO
SIGNIFICANT WEATHER AND/OR OBSTRUCTIONS TO VISIBILITY.


SDZ001>005-009-010-012>017-220700-
NORTHWEST AND NORTH CENTRAL SOUTH DAKOTA

CITY           SKY/WX    TMP DP  RH WIND       PRES   REMARKS
BUFFALO          N/A     37  34  89 W23       29.40R
FAITH            N/A     38  35  89 NW15      29.44R
MOBRIDGE       FOG       29  28  96 SE3       29.41S VSB 1/4
$$

SDZ012>016-024>037-041>051-057-063-072>074-220700-
SOUTHWEST AND SOUTH CENTRAL SOUTH DAKOTA

CITY           SKY/WX    TMP DP  RH WIND       PRES   REMARKS
RAPID CTY ARPT LGT RAIN  41  33  73 NW23G35   29.49R
PIERRE         CLOUDY    28  26  92 W5        29.42S WCI  23
CUSTER         CLOUDY    33  25  72 NW10G21   29.48S WCI  25
ELLSWORTH AFB  LGT RAIN  39  35  84 NW24G30   29.49
PHILIP         LGT RAIN  40  37  89 NW20G26   29.47R
PINE RIDGE     CLOUDY    37  30  75 W8        29.53R
SPEARFISH      LGT RAIN  36  32  87 W22G29    29.55R
WINNER         CLOUDY    39  31  72 SW7       29.44S
$$

SDZ004>011-016>023-039-040-220700-
NORTHEAST SOUTH DAKOTA

CITY           SKY/WX    TMP DP  RH WIND       PRES   REMARKS
ABERDEEN       CLOUDY    36  33  89 S8        29.46F
WATERTOWN      CLOUDY    36  35  96 S13       29.47S
SISSETON         N/A     35  35 100 SE13      29.50F WCI  26
$$

SDZ017-020-022-023-036>040-048>070-220700-
SOUTHEAST SOUTH DAKOTA

CITY           SKY/WX    TMP DP  RH WIND       PRES   REMARKS
SIOUX FALLS    CLOUDY    40  37  89 S21G30    29.54S
HURON          CLOUDY    36  34  92 S10       29.44F
CHAMBERLAIN    CLOUDY    35  32  88 SW8       29.44R WCI  29
MITCHELL       LGT RAIN  39  36  89 S13       29.48S
YANKTON        CLOUDY    39  37  93 S12       29.54S
$$

ABBREVIATIONS USED IN REMARKS
   TC - TEMPERATURE IN CELSIUS
  WCI - WIND CHILL INDEX
   HX - HEAT INDEX
  VSB - VISIBILITY



USA.gov is the U.S. government's official web portal to all federal, state and local government web resources and services.